Вернуться в каталог

FENGYUN 1C DEB

АктивенSSO
NORAD 40689·DEBRIS·🇨🇳 China

Запущен May 10, 1999 с Taiyuan Satellite Launch Center

Loading…

Ближайшие Пролёты (ближайшие 24 часа)

TLE

УстаревающийSource: Space-Track

Эпоха: Sep 7, 2026, 13:09 UTC

1 40689U 99025EWV 26250.54807170  .00000972  00000-0  89406-3 0  9997
2 40689  99.1177 157.9734 0308729 122.3102 240.8341 13.65493723585518

Отслеживайте FENGYUN 1C DEB в реальном времени с AllMySat

Download on the App Store